星链-31911 (STARLINK-31911)

导读 | 豆包AI

STARLINK-31911是美国太空探索技术公司SpaceX星链星座中的一颗卫星,于2024年8月20日由美国发射入轨。星链项目旨在构建全球卫星互联网星座,为全球提供高速低延迟的宽带服务,这颗卫星进一步扩充了星链星座的在轨规模,助力其全球网络覆盖与服务能力的提升。

基本信息
目录编号:
60587
目录名称:
STARLINK-31911
国际标识:
2024-150E
轨道中心:
EARTH
卫星名称:
星链-31911 (STARLINK-31911)
卫星全名:
星链-31911 (STARLINK-31911)
卫星状态:
在轨 (已飞行572 天)
发射日期:
2024-08-20 UTC
国别 :
美国 (US)
星等 :
--
轨道信息
数据来源 国际轨道数据
星历时间: 2026-03-15T14:26:34+0800
10小时前
查看轨道信息
半长轴: 6853.402km
偏心率: 0.0001215
轨道倾角: 53.160°
近地点辐角 96.129°
升交点赤经 281.245°
平近点角 263.985°
近地点: 474.432km
远地点: 476.098km
周期: 94.106分钟
每日圈数: 15.301836
详细信息
卫星平台:
Starlink v2.0 mini
运营商:
太空探索技术公司
运营商所在国:
美国
制造商(研发单位):
太空探索技术公司
制造商所在国:
美国
使用方式:
暂无
卫星简介
星链(Starlink)计划是由太空探索技术公司(SpaceX)提出的一个巨型低轨卫星互联网星座项目,计划在2019年至2024年间在太空搭建由约1.2万颗卫星组成的“星链”网络,其中1584颗将部署在地球上空550千米处的近地轨道,并从2020年开始工作。该卫星仍在工作。
2D轨道图
3D轨道图
轨道高度分析图
轨道倾角分析图
轨道综合分析图
查看轨道综合分析图